Theta_e
304 306 306 306 306 305 305 304 303 304 302 303 305 304 303 303 303 304 305 307 308 310 311 312 311 311 313 314 316 321 323 323 324 325 326 326 326 324 321 320 318 315 311 308 307 306 305 305 304 304 303 302 302 302 301 301 301 301 301 301 302 302 302 302 302 302 300 299 298 298 298 297 297 296 295 295 294 295 295 295 295 295 295 295 296 295
304 307 308 307 307 306 305 305 303 303 303 302 304 303 303 303 303 303 303 306 308 309 310 311 311 311 312 314 315 319 323 323 323 325 325 325 324 322 320 319 316 312 308 307 306 305 305 304 303 303 303 302 302 302 301 301 301 301 301 302 302 302 302 303 304 303 301 299 298 299 298 298 297 296 296 295 294 294 295 295 295 295 295 295 295 295
307 308 308 307 307 307 306 305 303 303 303 303 303 303 303 303 303 303 303 303 306 308 309 309 309 310 312 314 315 317 321 322 322 323 324 324 322 320 319 317 313 310 308 306 306 305 305 303 303 303 303 302 302 302 301 301 301 301 301 302 302 302 302 303 304 304 302 299 299 299 298 298 297 296 296 295 295 294 295 295 295 295 295 295 295 294
310 309 309 308 308 308 307 306 304 304 304 304 304 304 304 303 303 305 306 305 306 308 309 310 309 309 312 314 315 317 320 321 322 322 323 323 322 320 318 315 312 310 308 307 306 305 304 303 303 303 303 302 302 302 302 302 302 302 302 302 302 302 302 302 302 303 302 299 299 300 298 298 297 297 296 296 295 294 294 295 295 295 295 294 295 294
310 310 309 309 309 309 308 307 305 304 305 304 304 304 304 303 302 304 305 305 308 309 309 309 309 309 311 313 314 316 319 321 321 322 323 323 321 319 317 313 311 309 308 307 306 305 305 304 303 303 303 303 302 302 302 302 302 302 302 302 302 302 303 302 301 301 301 300 300 300 298 297 297 296 296 296 295 294 294 295 295 295 294 294 295 294
309 310 310 310 310 309 308 308 307 306 306 305 304 304 304 303 302 303 304 305 307 308 309 309 308 309 311 313 314 317 319 320 321 322 322 322 320 318 316 313 311 309 308 307 306 305 305 304 303 303 303 303 302 302 302 302 302 302 302 302 302 302 302 302 301 301 301 300 300 299 298 297 297 296 296 296 296 295 295 295 295 295 294 294 295 294
310 310 310 310 309 309 308 308 307 306 307 307 307 306 304 303 303 304 305 305 307 307 309 309 308 309 313 314 314 316 319 319 321 322 322 321 320 318 316 314 311 309 308 308 306 305 305 304 304 303 303 303 303 302 302 302 301 302 302 302 302 302 302 301 300 301 301 300 300 299 298 298 297 296 296 296 296 296 295 295 295 295 294 294 294 294
312 312 311 310 309 309 309 309 308 307 307 309 310 309 306 304 304 304 305 306 307 308 308 309 309 309 312 314 315 316 318 319 321 322 322 321 320 318 316 314 311 309 309 308 306 306 305 305 304 304 303 303 303 303 302 301 301 301 302 302 302 302 302 301 300 302 302 300 300 300 298 298 297 296 296 296 296 295 295 294 295 294 294 294 294 294
312 313 313 311 310 309 310 309 308 307 308 310 310 310 307 305 305 305 305 307 307 308 310 309 309 309 311 315 317 317 318 319 320 321 322 321 319 318 316 314 311 309 308 307 306 306 306 305 304 304 303 303 303 303 302 302 301 301 301 302 301 301 301 301 301 302 301 300 300 300 298 298 297 296 296 296 296 296 295 294 295 294 294 293 293 294
311 311 310 309 310 311 311 310 307 307 309 309 309 309 308 306 305 306 306 308 308 309 310 310 310 309 311 316 318 318 318 318 320 321 322 321 319 318 316 314 311 309 308 307 307 307 306 305 304 304 303 303 303 302 302 302 301 301 301 301 302 302 301 301 301 301 301 300 300 300 299 298 298 296 296 296 296 296 295 295 295 295 294 293 293 293
308 308 307 308 309 310 310 309 307 306 307 308 308 310 311 308 307 308 308 309 310 311 311 311 310 310 313 316 318 318 318 317 320 322 322 321 319 318 316 313 311 310 308 308 307 307 307 305 304 304 304 303 303 303 302 302 301 301 302 301 302 302 301 301 301 301 300 300 300 300 299 299 298 297 296 296 297 296 295 295 295 295 294 294 293 293
309 309 309 309 308 308 309 309 308 306 305 308 309 311 313 313 311 311 311 311 311 313 313 312 312 311 313 317 318 317 317 318 320 322 322 322 320 318 316 313 311 310 309 308 308 307 306 305 304 304 304 303 303 303 302 302 301 301 301 301 301 301 301 301 301 300 300 300 300 300 299 299 299 297 296 296 297 297 296 296 296 295 295 294 294 294
314 314 312 310 307 306 310 311 310 308 307 308 309 311 314 315 314 314 314 314 313 313 314 313 313 313 313 318 319 317 318 320 321 321 321 321 320 318 317 314 312 311 309 308 308 307 306 306 305 304 304 303 303 303 302 302 302 301 301 301 301 301 301 301 300 300 300 300 300 300 299 299 299 298 296 297 298 297 297 297 297 296 296 296 295 294
315 316 313 313 310 307 309 312 311 311 310 310 310 312 315 316 316 316 316 316 316 316 316 314 314 316 317 318 319 318 319 320 320 321 322 321 320 319 316 314 312 311 310 309 308 307 306 306 305 304 304 303 303 303 302 302 302 301 301 301 301 301 300 300 300 300 300 300 300 299 299 299 299 298 297 297 298 297 296 297 298 297 296 296 295 295
313 315 315 314 312 309 310 312 312 311 310 310 311 311 315 316 316 318 318 318 319 318 317 315 314 318 319 317 316 317 316 316 319 321 322 321 319 318 316 314 313 311 310 310 309 308 307 306 305 305 304 303 303 303 302 302 302 301 301 301 301 301 300 300 300 300 300 300 300 299 299 299 299 299 298 298 298 298 296 296 298 298 296 296 295 294
311 314 315 313 312 311 312 311 310 310 311 310 309 311 314 313 313 316 317 317 318 319 319 317 317 317 317 315 314 315 315 316 319 321 321 320 319 317 316 314 313 312 311 310 310 308 307 306 305 305 304 303 303 303 302 302 302 302 301 301 301 301 300 300 300 300 300 300 300 299 299 299 299 299 298 298 299 298 297 296 298 299 297 296 294 294
310 312 313 311 311 311 311 311 309 308 310 310 310 312 311 308 309 315 318 316 317 320 319 318 319 317 316 315 313 314 318 319 319 320 319 319 318 318 317 315 314 313 311 311 310 309 308 307 305 304 304 303 302 302 302 302 302 302 302 301 301 301 300 300 300 300 301 300 299 299 299 299 299 299 298 298 299 299 298 296 297 298 297 295 294 294
307 309 309 310 313 311 307 309 309 308 308 309 310 310 308 308 309 312 318 319 319 320 318 317 318 316 317 317 314 314 318 318 317 318 319 319 319 318 318 316 315 313 312 311 310 309 307 306 305 304 304 303 303 302 302 302 302 302 302 301 301 301 301 301 301 301 301 300 299 299 299 299 299 299 298 299 299 299 299 297 297 298 297 295 294 294
306 307 309 310 312 310 307 308 309 308 307 307 308 307 307 311 313 312 316 320 320 321 319 317 317 316 317 316 313 312 313 314 316 318 318 319 319 319 318 317 316 314 313 312 311 309 307 306 306 305 304 303 303 303 302 302 302 302 302 302 301 301 301 301 301 301 300 300 299 299 299 299 300 299 299 299 299 299 299 298 297 298 298 296 294 294
305 307 312 311 308 308 310 311 309 307 307 307 306 306 307 309 311 311 312 314 316 320 319 317 318 318 315 313 312 310 308 309 312 317 319 319 318 318 317 317 317 315 314 312 311 310 308 306 306 305 305 304 303 303 303 303 302 302 302 302 302 302 302 302 302 301 301 300 299 299 299 299 299 299 299 299 299 300 300 298 297 298 298 296 295 294
304 306 311 311 307 308 309 307 306 307 307 307 306 305 305 306 308 310 310 308 311 318 320 319 319 316 312 311 310 307 306 306 307 313 318 319 317 318 317 317 317 316 315 313 312 311 309 307 307 306 305 304 304 303 303 303 303 302 302 302 302 302 302 302 303 302 301 300 300 299 299 299 299 299 299 299 300 300 300 299 297 298 298 296 295 295
303 306 308 307 307 311 310 304 303 305 305 306 306 305 304 305 307 311 313 310 309 313 315 317 320 317 310 309 308 304 304 307 307 311 317 319 318 318 318 318 317 316 316 315 314 312 309 308 307 306 306 305 304 303 303 303 303 302 302 302 302 303 303 304 303 301 301 300 300 300 300 299 299 299 299 299 300 300 301 300 297 297 298 296 295 295
301 303 305 306 306 308 308 301 299 302 301 303 305 304 304 305 306 310 315 313 310 310 309 312 319 317 307 306 307 305 304 305 306 309 316 320 319 318 319 318 318 318 317 316 315 313 311 309 308 307 306 305 304 304 303 303 303 303 302 302 303 303 304 305 304 302 301 301 301 301 300 299 299 299 299 299 300 300 301 302 299 297 298 297 296 295
300 301 303 306 308 307 304 300 299 299 301 304 304 303 304 304 304 307 308 308 310 311 310 314 321 316 309 307 308 306 306 306 307 308 314 320 320 319 319 318 318 319 318 317 315 313 311 310 309 308 307 306 305 304 304 303 303 303 303 302 303 303 303 304 303 303 302 302 301 301 300 299 299 299 299 299 300 300 301 302 300 298 298 297 296 295
302 305 304 306 309 309 308 307 304 302 303 305 303 303 304 302 302 305 306 306 311 310 308 315 321 315 310 310 309 308 309 310 310 310 313 318 319 318 318 318 318 318 318 317 316 314 313 311 309 309 308 307 306 305 304 304 303 303 303 303 303 303 303 302 303 303 303 302 301 301 300 299 299 299 299 299 300 300 301 303 302 299 298 297 296 295
302 304 304 304 306 306 306 308 306 304 304 304 303 302 302 300 300 305 308 310 313 310 306 311 316 313 311 311 308 307 307 309 311 310 312 314 315 316 316 316 317 317 318 317 316 315 314 312 311 310 309 308 308 307 306 305 304 304 303 303 303 303 303 303 303 303 303 303 301 301 300 300 299 299 299 299 300 300 301 302 303 301 299 297 297 296
301 301 302 306 307 304 304 305 303 301 303 305 304 301 300 299 300 304 310 312 312 311 310 310 309 310 312 310 307 306 305 307 308 309 311 311 310 312 313 313 314 314 315 314 314 315 314 313 312 311 310 309 309 308 307 306 306 305 304 304 304 303 304 304 305 304 303 303 302 301 301 300 300 300 300 299 300 300 300 302 303 303 301 298 297 296
302 303 301 303 306 303 303 303 299 298 302 303 303 301 300 299 301 307 312 310 308 311 314 311 307 309 311 308 306 306 305 306 307 308 309 309 308 309 310 312 312 312 312 312 312 313 314 314 312 311 311 311 310 309 309 308 307 306 306 306 305 304 305 305 304 304 303 302 302 302 302 301 301 300 300 300 300 300 300 301 303 303 302 300 297 296
303 304 299 298 303 302 300 299 298 298 300 300 300 302 300 299 303 308 309 306 306 312 314 310 308 309 309 307 307 307 306 306 306 305 304 305 306 308 310 312 313 312 312 312 312 312 312 312 311 310 311 311 311 310 309 309 309 308 307 307 306 305 305 304 303 303 302 302 302 302 302 301 301 300 300 300 299 300 300 301 302 303 303 301 299 297
301 305 299 295 301 303 297 295 295 297 299 301 303 303 301 299 302 305 306 304 305 309 310 308 309 309 308 308 308 307 306 305 305 304 304 306 307 309 311 312 312 311 311 311 310 310 310 308 306 307 309 309 310 311 310 310 309 309 308 307 307 307 305 305 304 303 302 302 302 302 302 301 301 300 300 300 300 300 300 301 302 302 303 302 300 298
299 304 300 296 303 308 301 295 296 296 298 304 308 305 301 300 301 303 305 305 307 309 307 307 309 309 307 307 307 307 306 305 306 308 308 307 307 308 310 311 311 312 311 311 310 309 309 305 302 304 306 308 309 310 310 310 310 309 309 308 308 308 307 306 305 304 303 303 303 302 301 301 301 300 300 299 299 299 300 301 302 302 303 302 301 299
301 303 302 300 305 311 306 298 298 297 297 304 310 306 302 302 301 301 303 304 307 310 309 309 310 310 308 308 307 307 307 307 308 310 311 310 308 308 310 310 310 311 311 311 310 310 310 307 302 301 304 306 308 310 310 310 310 309 309 309 310 309 309 307 306 305 305 305 304 302 302 302 301 300 299 299 299 299 300 300 301 302 303 302 301 299
300 300 303 300 304 316 312 300 301 306 306 310 309 302 298 299 299 298 300 301 303 306 309 311 310 308 308 307 305 304 305 306 307 307 307 308 307 306 308 309 309 309 309 309 309 309 308 305 301 301 303 305 307 310 311 311 311 311 311 311 311 310 308 308 307 306 306 305 304 303 302 301 300 300 299 299 299 299 299 300 301 302 302 302 301 299
299 300 301 297 302 316 313 302 305 311 309 307 304 299 298 298 298 299 299 299 300 302 304 307 306 306 307 306 304 303 303 303 303 304 303 303 305 306 307 307 306 306 306 306 307 305 300 298 300 302 304 306 307 308 309 309 310 312 312 311 310 309 308 307 306 306 305 305 304 303 302 301 300 300 299 299 299 299 299 300 301 302 303 302 301 300
301 302 301 297 300 308 308 306 309 310 309 306 300 297 298 296 295 298 299 300 301 301 302 306 308 309 308 306 304 303 303 302 302 304 305 304 303 305 305 304 303 304 306 308 308 302 295 295 299 303 305 308 309 308 308 308 309 309 309 309 308 308 307 306 305 305 305 304 304 303 302 301 301 300 299 299 299 298 299 300 301 302 302 301 301 300
301 302 301 299 300 303 304 306 305 304 305 305 299 295 296 295 296 299 301 301 301 302 305 308 310 309 306 305 304 302 302 304 303 303 305 305 303 303 303 302 301 302 303 302 301 297 295 296 298 300 303 306 306 307 308 309 309 308 308 307 307 307 307 306 306 305 305 304 303 302 302 301 300 300 299 298 298 298 299 300 300 301 302 301 301 299
298 300 300 300 300 300 301 306 311 307 304 305 303 298 296 297 298 300 302 301 299 302 306 306 306 306 304 303 304 303 302 305 305 301 301 304 305 304 301 298 297 298 296 295 295 295 295 297 298 299 301 302 303 305 306 307 308 308 308 307 306 306 306 306 306 306 305 304 303 302 301 301 300 299 299 298 298 298 299 299 300 300 300 299 298 297
296 298 299 300 302 300 299 303 311 311 307 309 306 298 296 297 296 298 305 307 302 302 304 304 302 305 305 302 302 305 307 305 303 301 302 306 308 305 300 294 292 294 294 294 295 296 295 296 297 298 300 301 302 303 304 304 306 306 306 306 306 306 305 305 305 305 305 304 304 303 302 301 301 300 299 299 298 298 299 299 299 299 299 298 298 297
295 296 299 303 306 303 300 300 303 304 305 307 303 298 297 296 294 298 310 314 307 303 303 303 302 303 306 304 303 309 311 304 301 304 308 310 306 302 301 298 293 294 296 295 295 296 296 296 296 297 298 299 301 302 302 303 304 304 305 305 305 304 304 305 305 306 306 306 305 305 303 302 301 300 299 299 299 299 299 299 299 298 298 298 298 298
299 301 301 302 305 304 302 303 303 303 304 303 300 299 298 294 296 304 311 312 309 306 304 305 304 304 306 305 304 309 311 304 301 303 304 302 297 294 297 297 294 294 296 295 295 295 296 296 296 296 297 297 298 299 301 302 302 303 304 303 303 303 304 306 306 306 306 306 305 305 304 302 302 301 300 300 300 300 299 299 298 298 297 298 298 297
303 302 298 299 305 306 306 306 304 303 302 299 298 299 296 295 302 309 309 307 307 308 307 308 310 310 309 307 305 304 304 303 303 304 302 301 301 299 295 293 294 295 295 296 295 295 295 296 296 296 296 296 296 297 298 300 301 302 302 302 302 303 305 306 306 305 305 305 304 304 303 303 302 302 301 301 300 299 299 298 298 298 298 298 298 296
304 302 297 298 304 304 304 307 306 304 300 297 297 297 294 298 307 311 307 304 304 306 306 308 311 311 309 309 309 307 305 304 304 306 306 308 309 303 294 291 293 295 294 295 295 295 295 295 295 296 296 295 295 295 296 298 299 300 301 301 302 303 303 304 304 304 304 304 303 303 303 302 302 301 301 300 299 298 298 298 297 297 297 296 296 295
302 303 302 302 301 300 300 301 303 304 301 297 298 298 297 300 307 308 304 302 302 305 307 309 311 309 307 308 310 310 310 309 308 307 307 309 308 299 291 290 293 294 294 295 295 294 295 295 295 296 295 295 295 295 295 296 297 298 299 300 300 300 301 301 302 303 303 303 303 303 303 303 302 301 301 300 299 298 298 297 297 296 295 295 294 294
302 302 307 306 301 302 306 307 307 308 305 299 299 302 303 303 304 304 304 301 302 305 307 309 311 308 305 307 309 308 307 308 307 305 304 306 306 298 290 289 292 293 294 294 294 294 295 295 295 295 295 295 295 295 295 295 295 296 297 298 298 298 298 299 300 300 301 302 302 302 303 303 303 302 302 301 300 298 297 297 296 295 295 294 293 292
300 301 306 303 300 303 311 314 312 309 305 300 300 303 307 307 304 302 301 300 302 306 305 305 308 309 305 304 305 305 306 305 305 305 303 304 305 298 291 290 291 292 294 294 294 294 294 294 295 294 294 295 294 294 295 294 294 295 295 296 296 296 296 297 297 298 299 300 300 301 301 301 301 301 301 301 300 299 298 297 296 295 294 294 293 292
297 296 298 300 303 304 303 302 300 300 303 302 299 299 301 302 303 303 302 302 305 307 306 306 307 309 308 305 303 305 307 307 306 305 303 305 304 294 287 289 292 293 294 294 294 294 294 294 294 294 295 295 294 294 294 294 294 294 295 296 295 295 295 295 296 296 297 297 298 299 299 299 300 300 300 299 299 299 298 298 297 296 295 294 292 292
296 294 297 301 303 303 305 307 304 303 307 306 302 301 300 298 298 299 302 305 306 307 308 307 305 305 305 303 303 305 305 303 304 305 304 305 305 294 285 287 292 293 293 294 294 294 294 294 294 295 295 295 295 295 295 294 294 295 295 295 294 294 294 294 294 295 295 295 296 297 297 298 298 298 298 298 298 297 297 296 296 295 294 293 292 292
297 294 299 303 300 300 307 310 304 302 304 302 300 301 301 301 300 297 297 300 301 302 300 296 296 301 303 303 303 303 303 302 302 304 305 305 300 291 285 288 292 293 294 294 293 293 294 294 294 294 295 295 295 295 295 295 295 295 294 294 294 293 293 293 293 294 294 294 295 295 296 296 296 297 297 297 297 297 296 296 295 295 295 295 295 293
294 295 301 302 300 300 303 304 301 299 300 301 301 301 301 300 301 299 297 296 297 300 298 294 292 293 295 298 300 299 302 304 301 299 304 307 300 290 288 290 292 293 294 294 294 294 294 294 294 294 294 295 295 295 294 295 294 294 294 294 293 293 293 293 293 293 293 293 293 294 294 294 295 295 296 296 296 296 296 296 296 295 296 297 296 296
294 300 302 299 300 305 306 306 306 302 302 304 305 306 306 301 298 299 300 300 302 305 307 305 300 292 288 290 291 295 303 306 299 294 298 299 294 290 291 292 292 294 295 294 294 295 295 295 295 295 295 295 295 294 295 295 295 294 294 293 293 293 293 293 292 292 292 292 293 293 293 293 293 294 294 294 295 295 295 295 295 295 295 295 295 295
296 302 302 300 304 308 307 309 308 303 304 308 305 304 305 299 298 303 304 305 308 307 304 308 308 303 299 293 286 289 301 302 295 294 297 294 290 290 292 292 293 294 295 295 295 296 296 296 295 295 295 295 295 295 295 295 295 295 295 294 294 293 293 292 292 292 292 292 292 293 292 292 293 293 293 293 293 293 294 294 294 294 294 294 294 293
Wind_Speed
1 1 3 6 9 9 9 11 13 12 8 4 2 3 5 5 7 6 5 5 2 1 5 6 8 7 8 11 9 7 7 7 8 8 8 8 7 7 7 7 8 7 8 14 20 22 23 24 26 27 27 28 29 29 30 31 31 32 32 29 28 27 25 24 22 20 18 18 16 14 15 15 12 11 10 8 7 5 3 1 2 4 5 6 7 7
1 3 9 11 11 12 10 9 11 11 8 5 4 5 6 7 9 8 7 6 2 1 5 6 7 7 8 9 9 9 7 8 10 9 8 9 7 7 9 7 7 6 8 13 16 19 23 24 26 27 28 30 31 30 31 31 32 32 30 29 28 26 25 23 22 19 18 19 17 15 17 16 14 12 11 9 8 6 4 2 1 2 4 5 6 6
2 7 14 14 8 8 9 8 9 11 10 7 6 5 7 5 5 8 7 6 2 2 5 8 8 7 8 9 9 10 9 8 10 9 9 9 7 8 10 9 8 8 8 9 11 16 22 23 26 27 27 29 31 31 31 31 32 31 29 29 28 26 25 23 21 20 19 18 16 15 16 16 14 12 12 10 8 7 5 3 1 1 3 4 5 5
4 8 10 9 6 5 9 8 8 9 8 7 6 6 9 6 3 5 5 2 3 5 5 6 5 6 7 8 9 9 8 7 7 8 9 9 9 9 10 10 10 11 11 10 10 13 19 22 24 25 26 28 29 30 31 31 32 32 31 30 29 27 24 23 21 19 19 18 17 16 15 15 14 12 12 11 10 9 7 4 3 1 1 3 4 4
11 13 7 5 6 5 9 8 8 7 5 8 9 9 11 8 6 7 4 2 1 3 6 4 4 5 5 7 8 6 7 7 6 7 8 8 7 7 9 9 9 9 10 12 11 12 17 21 23 25 26 27 29 30 31 32 33 32 32 31 29 27 25 24 21 19 20 19 18 17 15 15 14 13 13 14 13 11 9 7 5 3 1 1 3 3
11 11 3 4 6 4 7 7 7 8 5 6 10 13 15 10 7 8 3 3 3 3 5 5 2 4 4 8 9 5 7 9 7 7 8 7 7 8 9 9 8 8 8 10 11 13 16 20 21 23 26 27 28 29 30 31 31 32 32 31 29 28 27 26 23 21 22 20 19 19 18 18 17 17 17 16 14 12 10 8 6 4 2 1 1 2
6 3 1 2 4 4 7 7 7 8 5 5 5 13 16 11 8 8 3 2 2 3 2 5 4 3 2 6 9 8 10 11 8 7 7 7 7 8 9 9 8 8 8 8 9 12 16 20 21 22 26 27 27 28 28 29 30 31 32 31 30 29 28 26 25 23 23 22 21 21 21 20 18 19 19 16 13 11 9 9 8 6 3 2 1 1
3 2 1 2 3 4 5 6 6 8 6 4 1 8 12 11 11 9 6 5 4 3 2 5 6 3 3 5 7 10 11 12 10 9 8 7 8 8 9 10 8 8 9 9 10 12 16 21 21 22 27 28 27 27 28 29 30 30 31 31 30 29 28 27 26 25 24 23 22 22 23 21 18 18 18 14 12 11 10 10 9 7 5 4 2 2
1 3 3 2 2 3 4 5 4 6 7 4 1 4 8 9 9 7 6 6 5 3 3 5 6 3 4 3 5 10 12 13 13 13 10 9 9 9 8 9 8 9 11 12 11 13 17 21 20 22 27 27 26 28 29 29 30 29 30 30 29 28 28 28 27 26 25 24 23 23 24 21 19 19 17 15 13 13 12 11 11 9 7 5 4 3
3 3 3 2 2 4 5 5 4 7 8 2 3 2 4 4 5 5 5 5 4 4 5 5 7 4 3 2 5 9 11 12 11 11 11 10 11 10 9 9 9 10 11 11 12 15 19 21 22 22 24 24 24 27 28 28 29 29 29 29 29 29 28 29 28 27 26 25 24 25 24 23 21 20 18 16 14 14 14 13 13 11 8 7 6 5
8 3 4 2 4 4 3 4 4 8 9 2 2 2 3 3 4 4 4 4 3 4 5 6 9 6 2 2 6 7 9 11 10 9 9 9 9 10 10 10 10 10 10 10 11 15 17 19 21 23 24 25 26 27 28 28 29 30 30 31 31 30 30 29 28 28 27 27 27 26 25 25 24 22 20 18 17 17 16 15 14 12 10 9 8 7
8 2 2 4 4 2 2 3 3 6 7 5 2 2 2 2 3 2 3 3 3 4 4 6 11 8 4 3 5 6 7 10 10 9 11 11 10 10 10 10 11 10 10 9 9 11 14 16 20 23 23 25 26 27 29 29 29 30 30 31 30 30 31 31 29 29 29 29 29 27 27 27 25 23 21 20 19 18 18 17 15 13 12 11 9 8
6 3 2 3 1 3 1 3 2 2 3 4 2 2 2 1 1 2 2 2 3 4 3 5 9 6 4 4 4 7 7 9 9 9 12 14 14 13 11 11 10 8 9 9 8 9 12 16 20 22 22 24 26 27 28 28 29 30 30 31 31 31 31 32 31 31 31 30 30 29 28 27 26 24 23 21 20 19 18 17 16 15 13 11 9 8
5 3 2 2 1 2 2 2 2 1 1 3 3 2 2 2 1 2 2 2 3 3 1 5 5 2 2 2 4 7 6 4 5 7 9 10 10 11 10 10 9 9 9 9 9 9 11 15 19 21 23 25 26 27 28 29 30 31 31 32 32 31 31 31 31 31 30 30 30 29 29 28 27 26 24 22 21 20 19 18 16 15 13 11 9 7
3 5 2 2 1 2 3 2 1 2 3 2 2 2 2 1 1 2 2 1 1 1 2 6 4 2 2 1 3 5 3 1 0 3 7 7 7 8 8 9 9 9 9 8 9 10 12 17 21 22 24 26 26 28 29 30 30 31 32 33 33 32 31 31 31 31 30 31 30 29 28 28 27 26 25 23 22 21 19 18 17 15 14 12 9 7
2 6 5 4 2 4 2 2 2 2 2 1 1 2 2 1 0 2 2 2 1 1 2 4 2 1 1 0 4 2 1 2 2 5 8 9 9 10 9 9 9 9 9 8 8 9 12 18 21 22 25 26 27 28 29 30 31 31 32 33 34 33 31 31 31 31 31 31 30 29 28 28 27 28 26 25 24 23 20 18 17 15 14 13 11 9
2 6 7 5 2 3 2 1 2 1 1 1 2 1 2 1 1 2 2 2 1 1 0 1 0 2 1 1 4 4 4 4 4 6 8 9 11 11 9 9 9 9 10 9 8 8 12 17 21 23 25 26 28 29 29 31 31 31 31 31 33 32 31 31 30 30 31 30 29 28 27 28 28 29 28 27 26 23 21 19 17 16 15 14 13 12
1 7 8 3 2 1 2 3 1 1 1 1 2 2 3 2 1 2 1 1 1 1 1 2 2 2 1 1 3 5 5 3 3 5 7 8 10 10 9 9 9 9 9 8 8 9 12 17 21 23 24 26 28 29 29 30 30 30 30 31 32 33 32 32 31 30 31 30 28 27 27 28 29 29 29 28 26 24 22 20 18 17 17 16 15 14
1 5 7 2 2 3 1 3 1 2 2 2 1 2 1 1 1 1 1 1 1 0 1 2 3 2 0 1 2 3 3 2 2 5 6 8 9 9 7 8 9 8 8 8 8 8 10 15 19 20 21 23 25 26 26 27 28 28 30 30 31 32 33 32 30 30 30 30 29 28 28 28 28 30 30 29 26 25 23 21 20 19 18 17 17 16
1 2 5 3 3 3 1 2 1 2 1 1 1 1 1 1 1 1 1 1 1 1 1 1 3 2 1 1 1 1 1 2 1 3 6 7 8 7 7 7 8 8 8 8 9 8 9 15 18 20 20 21 23 24 25 26 28 29 29 29 30 31 31 31 31 30 30 29 29 28 28 28 30 31 31 29 27 25 23 22 21 21 19 19 19 18
1 1 4 6 4 2 1 1 0 1 1 1 2 3 2 2 1 0 1 1 0 1 1 1 0 2 2 2 2 2 2 0 1 1 3 6 6 6 6 6 6 7 7 8 8 8 10 14 17 18 19 21 22 24 25 27 28 29 29 30 30 30 30 31 31 31 30 30 29 29 29 30 31 32 31 29 28 26 24 23 23 22 20 20 20 19
0 1 3 6 6 2 1 0 1 2 1 1 0 2 2 2 1 1 1 0 1 0 1 3 1 3 2 1 3 3 2 1 1 0 1 4 7 6 5 6 6 6 6 7 7 7 9 12 15 17 19 21 22 23 25 26 27 29 30 31 31 31 31 32 31 31 31 30 30 30 29 30 31 31 31 30 29 27 26 25 24 23 22 22 22 21
1 0 2 5 6 4 2 2 1 0 2 2 1 1 1 1 1 1 1 1 1 0 1 1 1 1 1 1 3 4 3 3 1 1 1 3 6 5 5 5 5 5 5 6 6 7 10 13 16 18 20 21 23 24 25 27 29 30 30 31 32 33 33 33 32 32 31 31 31 30 29 30 31 31 31 31 31 29 27 25 25 24 23 22 22 22
0 1 2 5 6 3 2 2 1 2 3 2 1 1 1 1 2 3 1 1 1 1 2 1 2 2 1 3 3 4 3 2 0 1 2 3 5 5 5 5 5 5 5 5 6 7 11 14 16 17 19 20 21 23 25 27 28 28 30 31 32 33 33 33 33 33 32 31 31 30 29 30 31 32 32 32 31 30 28 27 26 26 25 23 23 23
1 1 2 4 6 5 5 4 3 2 1 1 2 2 1 2 3 3 1 0 1 1 1 1 2 1 3 4 4 4 4 4 4 3 1 2 4 5 5 5 5 5 5 5 6 7 9 13 15 16 18 20 21 23 25 26 27 28 30 31 32 32 32 31 32 32 32 31 30 29 29 30 32 32 33 33 32 31 30 29 28 27 26 25 25 24
1 2 0 2 2 4 4 4 3 4 4 3 3 2 0 2 3 2 2 1 1 1 1 2 1 1 4 6 7 7 7 5 5 4 4 3 2 3 4 4 5 5 6 7 7 7 8 10 13 16 19 21 22 24 25 25 26 27 28 30 31 32 31 31 31 31 32 31 31 30 30 31 33 34 34 34 33 33 32 30 29 28 27 27 26 25
2 1 1 4 5 5 6 6 3 3 4 5 7 8 5 2 2 2 1 1 1 2 2 1 1 2 5 7 8 8 7 5 4 4 4 4 4 3 2 2 3 4 4 5 6 7 7 8 11 15 18 21 23 24 25 26 27 27 28 29 30 31 31 32 32 32 33 33 32 31 31 33 34 35 35 34 33 33 33 31 30 29 27 27 27 26
2 2 2 3 6 9 9 8 3 2 3 5 7 9 8 5 3 2 2 2 2 2 2 1 2 2 4 6 7 7 6 5 4 5 4 3 3 3 2 3 2 2 3 3 4 5 6 7 8 13 17 20 21 23 24 25 27 28 29 30 30 31 32 33 33 33 33 32 32 32 33 34 34 34 34 33 33 33 33 32 31 29 28 28 27 27
3 3 2 1 7 10 8 7 4 1 4 5 5 7 8 6 4 4 3 3 3 1 1 2 3 3 3 4 6 5 4 4 3 3 3 3 3 4 3 4 2 1 1 2 3 4 5 6 7 11 16 18 19 21 22 24 25 27 28 29 30 31 32 32 31 31 31 31 33 34 34 34 33 34 33 33 33 33 33 33 31 29 29 29 28 28
3 3 2 1 8 9 4 4 2 1 3 4 5 6 6 5 1 2 1 3 3 2 1 3 3 3 3 4 5 4 3 4 4 2 2 2 2 3 4 3 2 1 1 2 3 4 4 5 7 10 13 15 18 20 22 24 25 27 27 27 28 29 30 31 30 30 31 32 34 34 33 33 33 34 33 33 34 34 33 33 32 30 30 30 28 28
2 3 0 1 5 8 3 1 1 2 4 4 5 4 3 2 1 2 1 1 2 2 3 3 3 3 3 4 4 5 4 4 4 3 3 2 2 2 2 2 3 3 3 4 4 4 4 5 7 10 12 14 17 19 21 23 24 25 26 26 28 28 29 30 31 31 32 33 33 33 32 32 34 34 34 34 34 33 33 34 33 31 31 31 30 30
3 3 2 5 5 7 3 4 5 3 2 2 5 5 3 2 0 1 1 1 2 1 2 4 3 1 3 3 4 5 6 6 6 4 3 3 2 1 1 3 3 4 4 5 5 4 5 5 6 9 12 15 18 19 21 23 23 24 25 26 27 28 28 30 31 32 33 33 33 32 32 33 33 33 33 33 32 32 33 33 32 31 32 32 32 31
2 2 3 4 4 7 6 6 7 3 4 2 5 3 1 1 1 1 1 2 4 4 3 1 1 2 2 0 2 3 4 5 5 4 3 3 3 2 3 4 5 5 5 5 5 5 5 6 7 9 11 14 16 19 21 22 22 23 24 25 26 27 28 29 30 32 33 32 32 32 32 32 32 32 32 32 31 32 33 33 33 32 33 34 33 31
2 3 1 1 1 6 10 9 6 5 4 3 4 1 2 2 1 1 2 4 5 3 2 2 3 3 2 3 4 4 3 2 3 4 3 3 2 2 3 5 5 6 6 5 5 5 6 7 8 8 10 11 12 14 16 18 20 21 22 22 24 25 26 28 29 30 31 31 31 31 31 31 31 31 31 30 31 32 33 33 33 34 34 34 33 32
2 3 1 1 1 4 8 8 7 3 4 6 3 1 2 2 2 3 4 5 5 5 4 4 4 4 3 4 5 4 5 5 5 5 5 4 4 4 4 5 5 5 5 4 4 5 6 7 8 9 10 10 11 11 12 14 16 17 18 19 21 22 24 25 27 28 29 30 30 30 30 30 30 30 30 30 30 31 32 33 34 34 34 34 33 33
2 2 1 1 1 3 5 5 3 4 7 4 2 1 2 2 1 1 4 5 4 5 5 4 5 4 3 3 4 4 5 5 2 3 5 5 6 6 5 3 3 2 3 4 4 4 4 4 5 8 9 10 11 13 13 14 14 15 16 17 17 19 21 22 24 26 28 29 29 30 30 30 30 30 30 30 30 31 33 34 35 35 34 34 34 34
4 3 0 1 1 1 1 3 4 5 5 5 3 1 1 1 1 1 2 4 4 3 5 2 3 4 2 2 3 3 3 2 4 2 2 4 6 6 5 4 3 4 5 5 4 3 2 2 4 5 6 8 9 11 12 13 14 16 16 16 16 17 19 21 24 26 27 28 29 29 29 29 30 30 30 31 31 33 34 35 35 35 34 34 34 35
4 1 1 0 1 2 2 3 5 5 3 5 5 3 2 1 1 2 4 3 4 4 5 3 0 3 3 2 4 5 2 4 5 3 4 3 3 2 3 6 7 7 7 6 5 3 2 3 4 4 6 7 8 9 10 12 14 16 17 18 18 18 20 22 25 26 26 27 28 28 29 29 30 31 31 32 33 34 34 34 34 34 33 34 34 35
5 2 2 3 1 2 3 1 2 0 2 5 6 6 4 0 2 4 6 4 6 5 5 4 3 3 3 1 3 4 5 5 3 4 5 4 4 2 3 5 6 6 5 5 5 4 3 3 4 5 6 6 7 7 9 11 13 15 18 19 19 20 22 25 26 26 26 26 26 27 28 29 30 30 31 32 33 34 34 33 33 33 33 33 34 34
4 4 2 1 1 1 3 1 3 4 3 3 5 6 4 0 3 6 5 5 7 5 5 5 4 4 4 2 1 3 3 2 2 5 4 5 6 5 5 6 6 6 6 5 4 4 4 5 5 5 6 5 5 6 8 10 12 15 17 18 19 22 25 26 25 24 24 24 24 26 27 28 29 30 31 32 33 32 32 32 32 31 32 32 32 32
2 2 1 1 1 2 3 2 4 4 3 3 4 5 3 1 4 5 1 6 5 4 5 6 5 4 5 5 3 2 2 4 4 4 5 5 6 7 7 8 9 9 9 7 5 5 6 6 7 7 7 6 5 7 9 10 12 15 16 17 20 24 25 24 22 22 22 22 23 24 26 27 28 30 30 31 31 30 30 30 30 30 31 30 30 31
0 1 1 2 2 2 3 2 3 4 4 3 3 4 2 1 1 2 5 5 3 4 5 5 4 4 5 5 5 4 3 3 3 5 6 4 4 6 8 8 8 8 8 7 6 6 7 7 8 9 7 6 7 9 9 10 13 14 15 18 22 23 22 20 20 21 21 22 22 24 25 26 27 29 29 29 29 29 29 29 29 29 29 29 29 30
3 2 2 2 3 1 2 2 2 3 4 4 3 1 1 1 3 5 4 2 3 5 5 4 5 4 4 4 5 5 5 7 6 6 6 5 5 6 8 8 7 7 7 6 6 6 7 8 9 8 7 7 8 9 10 11 12 13 15 19 20 18 17 17 18 19 20 21 22 23 24 25 26 27 28 29 29 30 29 29 28 28 28 29 29 30
4 3 2 2 2 2 2 0 3 4 5 4 3 2 4 3 4 4 2 2 3 4 3 4 5 5 6 6 5 5 5 6 6 5 5 6 5 6 8 8 8 7 7 6 6 7 8 9 9 8 7 8 9 10 11 12 13 14 17 18 16 14 15 16 15 17 19 21 22 22 23 24 25 26 27 28 29 30 30 30 30 29 29 29 29 30
4 4 4 2 2 4 5 6 6 4 4 4 4 5 7 5 3 5 5 3 3 3 4 4 4 5 7 7 5 4 4 5 5 4 4 5 6 6 8 9 9 9 8 7 6 8 9 9 9 8 7 8 9 11 12 12 14 16 18 16 12 12 13 13 13 15 17 19 21 22 22 23 24 25 26 27 29 30 31 31 31 31 31 30 30 31
4 2 3 2 3 4 5 6 5 5 6 7 6 6 7 6 3 5 5 5 5 4 5 4 4 5 4 5 3 4 4 5 5 6 5 5 6 7 9 12 12 10 8 7 5 5 7 8 8 8 7 7 9 10 12 13 14 16 16 13 11 11 11 11 13 14 15 17 19 19 20 22 24 25 26 27 28 30 31 31 31 32 32 31 32 32
3 2 3 2 2 2 4 4 4 5 6 6 5 5 6 8 7 5 5 5 5 5 5 5 5 4 3 5 5 6 6 5 5 7 6 5 6 7 8 11 11 9 7 6 4 4 5 6 7 8 7 7 7 8 10 12 14 14 13 12 12 12 11 11 13 14 15 16 17 17 19 21 23 24 25 27 28 29 30 30 31 31 32 33 33 33
1 3 3 3 3 3 5 8 8 7 8 7 6 5 6 7 8 7 7 6 5 4 5 5 5 4 3 4 6 6 6 6 6 6 6 5 5 7 8 8 8 6 4 3 3 4 5 6 7 9 9 8 6 6 8 10 11 11 11 12 13 14 14 14 15 15 16 16 16 17 19 20 22 23 25 26 27 28 30 31 31 33 35 35 35 35
3 3 3 3 2 3 7 9 7 7 9 9 8 8 8 8 8 7 6 5 5 6 6 6 6 7 7 6 6 6 6 7 6 6 6 5 5 7 9 8 8 6 4 3 3 4 6 7 8 9 10 10 8 8 10 11 10 10 10 10 11 13 15 16 17 17 18 18 18 18 19 19 21 22 23 25 26 28 29 30 31 33 35 36 36 36
3 4 3 3 1 4 7 6 3 1 4 8 7 7 8 7 7 6 5 5 7 8 7 6 7 8 10 10 8 6 5 8 6 5 6 6 7 10 11 10 10 10 8 5 5 6 7 8 9 10 11 12 11 11 12 11 10 10 10 10 11 12 14 15 16 18 19 19 20 20 20 20 20 21 22 23 25 26 28 29 30 32 34 34 34 34
5 7 7 6 5 6 8 7 4 4 4 7 6 6 5 3 6 8 8 8 9 9 7 6 6 6 7 10 11 11 8 8 7 5 5 8 12 14 13 12 12 12 10 8 8 10 10 10 11 13 13 13 12 12 13 12 10 9 8 9 10 11 13 14 16 18 20 20 21 21 20 21 21 21 21 22 23 25 26 27 28 30 31 33 33 33
Wind_Direction
136 244 249 239 244 240 224 208 216 234 235 214 217 232 233 248 256 249 255 252 167 261 263 249 254 255 254 256 249 229 219 220 216 207 205 204 188 172 173 170 161 151 132 135 142 145 148 151 152 152 154 155 156 159 161 160 161 163 167 171 173 175 178 179 176 173 171 169 175 193 206 207 205 208 211 208 208 209 199 143 61 46 41 39 34 29
134 236 251 247 243 249 247 223 221 235 236 225 228 255 258 244 255 257 248 251 160 158 269 267 268 261 246 252 250 229 214 217 217 208 205 202 182 168 170 160 143 125 118 131 137 142 148 150 153 154 156 159 159 162 166 165 167 169 172 175 177 177 180 182 182 181 176 174 181 197 209 211 208 210 215 216 217 214 210 203 82 42 39 37 32 28
230 240 254 263 256 251 256 234 220 228 227 229 226 244 260 240 257 272 258 256 212 163 263 266 267 265 247 243 242 229 217 214 214 206 204 200 182 168 166 153 135 127 130 138 137 143 150 152 154 156 159 163 164 165 168 169 171 174 176 178 179 179 180 183 187 187 180 178 188 206 219 219 212 214 217 219 223 219 216 222 226 21 34 36 30 27
267 256 255 270 267 245 255 237 213 225 224 222 215 221 247 222 174 261 269 245 189 185 235 258 266 270 257 248 241 230 223 219 212 203 202 201 190 177 168 155 148 147 147 150 144 145 151 153 157 160 163 166 166 168 170 171 174 176 178 178 179 179 181 185 186 185 181 183 196 213 225 225 218 221 221 219 224 222 217 224 230 261 21 34 29 26
263 272 280 286 268 245 256 247 208 221 229 219 214 214 240 231 196 230 267 356 320 217 226 242 286 280 244 243 246 227 218 223 212 199 201 201 185 165 155 151 154 151 149 151 150 151 155 159 165 167 167 168 170 172 173 174 176 177 177 179 183 184 187 190 188 186 185 186 201 214 218 216 214 219 221 219 221 220 216 220 227 235 285 21 24 21
261 271 299 289 278 254 251 250 213 213 229 233 221 218 233 236 216 230 261 350 330 274 219 179 232 272 213 221 236 215 209 215 201 192 193 181 159 150 151 154 151 144 150 155 152 154 159 162 167 170 171 173 174 176 177 177 178 178 179 181 185 188 190 192 191 191 189 189 203 215 214 209 210 215 220 221 222 221 218 218 223 228 236 292 356 6
264 267 115 254 280 268 250 253 225 205 220 258 219 209 224 228 221 223 196 162 228 268 234 164 193 264 232 219 218 203 209 209 194 184 179 165 158 159 159 159 151 142 149 156 150 153 161 166 170 174 178 179 178 179 180 180 180 181 182 184 187 191 193 193 193 193 192 194 206 218 220 219 222 224 227 229 228 226 222 221 222 223 227 239 280 321
240 255 208 207 262 270 260 264 230 187 203 258 178 182 206 214 219 216 194 198 231 286 290 195 199 241 263 238 201 191 207 210 201 193 177 164 161 158 160 161 153 147 150 153 157 162 170 174 175 178 181 182 181 181 180 181 183 184 185 187 189 192 194 196 197 194 193 198 207 218 222 224 230 234 236 236 231 225 223 223 223 223 226 231 246 261
190 242 239 209 284 279 256 265 238 187 206 247 35 170 188 199 212 204 197 221 238 273 274 209 187 214 260 252 180 179 201 212 205 199 186 170 164 157 158 161 153 156 160 159 164 171 176 178 179 180 180 181 182 183 183 183 185 186 187 189 190 193 195 198 199 195 195 202 210 217 221 225 231 236 238 238 235 226 220 222 224 225 229 232 238 244
261 225 196 171 257 250 240 253 232 202 216 260 13 192 163 169 193 182 198 224 222 233 256 209 175 197 250 213 177 180 199 210 202 194 188 177 172 165 158 158 156 160 166 167 169 175 180 180 179 178 177 179 183 186 186 186 186 187 189 190 192 195 196 197 199 198 199 205 212 217 221 226 230 234 236 237 236 227 222 223 224 225 229 235 239 239
268 228 134 192 230 225 256 268 228 213 224 269 357 225 182 158 163 167 200 220 227 236 243 200 178 198 256 194 189 191 195 200 192 183 183 177 174 170 162 159 161 166 171 172 172 175 178 176 175 176 177 180 185 188 189 189 189 190 191 192 193 196 196 197 200 201 203 209 215 217 220 224 229 234 235 235 233 226 222 222 222 224 229 236 241 239
276 231 160 244 222 174 300 290 228 217 233 248 297 262 231 177 160 178 193 196 223 254 251 196 174 185 231 215 200 205 191 186 189 184 176 175 175 175 170 165 167 170 171 169 167 169 167 166 174 180 180 181 185 188 190 190 190 192 193 192 192 193 195 198 203 206 207 211 217 219 221 224 229 234 236 237 235 229 227 225 221 222 226 234 242 241
289 224 236 281 217 171 246 305 275 193 206 220 231 267 250 186 174 212 204 207 224 244 253 180 161 174 229 235 213 212 198 179 182 185 181 182 181 178 172 167 167 165 163 165 166 167 167 170 178 181 179 180 184 188 189 190 191 192 194 194 193 194 196 200 205 208 210 213 218 221 222 224 228 235 239 240 239 235 234 231 225 224 227 232 241 245
313 301 299 313 307 177 172 329 324 318 243 223 212 234 237 206 227 228 205 223 233 235 201 136 152 202 255 241 207 206 213 187 173 180 181 180 173 167 161 156 158 160 162 169 173 174 174 175 178 179 180 182 185 188 189 190 192 192 193 194 195 196 198 202 207 209 211 215 220 222 223 223 227 234 239 241 240 238 238 237 232 232 234 235 239 244
314 309 288 283 316 144 185 216 169 235 265 257 233 239 263 253 242 254 222 216 233 212 122 125 155 215 163 193 239 216 223 296 219 153 146 143 139 140 142 147 156 161 167 175 178 179 178 178 178 180 184 186 187 188 189 191 192 193 194 195 195 196 199 204 208 211 214 217 220 223 224 224 228 235 239 241 241 240 240 241 237 235 237 237 235 233
259 264 251 267 222 155 205 227 147 236 266 240 254 269 298 333 343 280 254 235 214 103 128 143 170 248 155 307 307 277 125 65 74 119 130 136 137 137 144 159 164 166 174 180 181 181 180 180 181 183 185 187 187 189 191 192 193 194 195 195 196 198 201 204 208 212 214 216 218 222 225 225 228 234 238 239 239 240 242 244 241 238 239 237 230 227
302 274 279 310 312 157 178 149 136 272 315 302 294 316 302 294 262 274 264 260 266 92 22 252 262 331 19 16 348 23 73 73 86 121 138 144 147 151 161 171 173 174 179 181 179 181 181 181 184 187 188 187 188 190 192 194 195 195 195 195 196 199 201 206 210 212 212 213 218 223 226 227 229 233 237 238 238 239 242 244 241 237 238 234 228 228
287 286 290 304 318 290 134 118 119 227 252 314 321 326 296 255 219 271 282 330 2 76 330 333 340 334 44 74 358 36 70 83 115 134 142 150 158 166 171 174 176 176 175 172 174 182 185 185 187 189 190 189 190 192 194 196 196 197 198 198 197 199 202 207 211 212 212 214 220 225 226 227 229 234 238 238 238 239 241 244 239 234 236 234 229 229
237 290 294 242 237 302 81 108 22 269 214 214 286 333 324 278 276 296 262 296 352 350 291 348 347 316 189 129 355 29 64 89 146 156 153 159 169 173 173 175 175 170 167 170 178 186 188 190 191 190 189 190 191 194 195 197 197 199 202 202 201 202 205 208 212 213 214 217 221 224 227 228 230 234 237 237 237 238 241 244 240 235 237 234 229 230
229 276 288 278 268 307 18 84 341 297 253 212 297 18 111 238 274 309 298 304 324 218 225 10 6 329 271 235 261 343 8 48 107 177 168 169 178 176 173 178 175 173 175 177 182 187 187 191 193 191 189 188 190 193 195 196 198 200 203 203 203 204 206 209 213 215 215 217 222 226 229 231 231 234 236 236 236 239 242 244 240 236 237 235 230 231
343 239 262 296 325 347 0 17 71 251 295 2 2 7 351 299 315 294 278 301 130 171 163 113 46 288 271 245 262 307 310 35 98 223 181 169 179 181 176 178 178 178 180 178 179 184 186 188 188 187 187 187 189 192 194 196 198 200 202 203 203 204 205 209 214 216 215 217 222 226 229 231 232 234 235 235 236 239 241 242 239 237 238 237 233 232
251 238 254 301 325 307 237 191 163 190 162 87 80 26 331 303 335 327 293 57 98 119 174 159 173 282 290 299 302 305 300 282 141 292 248 170 176 184 174 172 175 176 178 175 174 177 177 176 175 178 183 186 188 191 193 196 198 200 202 203 203 205 207 211 213 214 216 218 221 225 227 230 233 235 234 233 234 237 238 239 237 236 237 238 235 234
188 142 271 278 274 260 224 119 101 126 112 111 130 131 221 290 320 287 289 329 341 336 237 171 107 323 286 303 304 294 287 284 248 228 252 165 166 175 164 158 160 162 166 164 163 169 169 168 170 176 182 185 188 191 193 196 199 201 203 203 204 206 208 211 213 214 216 219 221 224 227 230 232 233 232 232 233 235 237 237 236 235 237 238 237 235
128 35 308 285 280 300 23 79 43 19 88 87 324 210 182 289 272 252 278 336 321 335 331 348 73 60 334 328 319 304 298 296 277 271 257 164 156 164 161 157 155 153 153 153 158 164 164 165 170 176 182 185 188 191 194 197 199 201 203 204 206 207 208 209 211 214 217 220 222 224 226 228 230 231 231 231 233 235 236 236 233 234 236 238 236 235
293 296 314 330 332 344 0 5 356 345 28 23 289 236 178 285 278 265 266 288 324 351 15 52 77 69 331 341 0 3 9 38 44 4 342 139 152 161 159 159 160 157 155 157 160 161 160 164 171 177 182 186 190 193 196 198 199 200 203 206 208 209 209 210 211 214 217 219 221 223 224 225 228 230 231 231 232 233 235 234 232 231 234 236 235 233
236 260 285 57 338 317 321 320 325 325 322 325 303 292 16 323 301 279 259 292 4 1 75 78 38 346 331 353 17 20 24 39 32 20 33 54 86 122 133 147 160 165 170 168 166 166 166 168 174 181 185 188 192 195 196 198 199 202 204 207 209 209 210 212 214 215 217 219 219 220 222 224 227 229 231 230 230 231 233 233 231 230 231 235 236 233
109 260 207 156 195 241 263 262 284 350 313 296 311 323 346 357 302 267 285 20 345 317 59 67 280 321 344 352 5 7 12 21 15 23 37 32 30 49 85 116 144 159 165 165 162 167 170 172 179 184 187 192 195 197 198 199 201 203 206 210 211 212 213 215 217 217 217 218 218 219 222 225 227 229 230 230 229 230 232 233 232 231 231 233 235 233
82 295 271 183 224 242 254 268 309 21 278 276 306 316 327 345 355 351 351 3 329 319 48 10 307 356 351 341 349 350 351 356 355 4 12 6 360 358 36 73 79 100 111 126 150 169 175 178 185 187 189 194 197 199 201 202 204 207 209 212 213 213 215 216 215 215 215 216 218 221 224 226 228 230 230 230 229 229 230 233 233 232 231 232 233 234
113 264 245 221 268 259 253 274 298 248 248 269 286 292 309 333 8 33 357 330 345 21 50 344 346 4 334 325 334 329 323 322 314 322 331 331 338 340 12 55 69 89 101 147 173 188 191 187 189 191 193 194 195 198 201 203 206 209 210 212 213 214 216 216 214 214 215 216 219 223 225 226 228 230 230 229 229 228 228 232 233 232 232 232 232 235
136 263 226 229 289 288 275 272 275 237 263 284 281 278 293 301 324 72 2 316 3 45 344 324 344 340 306 294 300 301 307 297 281 292 343 5 12 358 3 14 348 307 297 237 220 217 213 204 198 197 196 194 194 198 201 203 207 209 209 211 214 216 217 217 216 216 216 218 222 224 224 225 227 229 229 229 228 227 227 230 233 232 232 233 233 234
11 308 239 95 311 302 306 356 312 252 249 266 281 288 300 310 0 87 60 322 20 24 319 328 12 0 309 276 287 310 328 315 308 344 3 9 39 27 355 323 292 277 268 250 238 223 215 214 205 199 198 198 200 202 204 207 210 211 212 213 216 219 220 219 218 218 218 222 224 224 223 225 227 228 229 228 227 226 226 229 231 232 233 233 233 234
20 343 349 40 351 292 294 9 331 273 191 259 307 329 2 42 26 258 235 189 165 148 343 356 25 354 275 290 322 324 323 321 323 339 343 333 357 13 271 276 267 251 245 247 247 236 223 216 203 196 198 202 203 205 209 212 212 212 214 216 218 221 221 219 219 219 222 224 225 224 224 225 226 226 227 227 226 226 226 228 230 232 233 233 233 233
73 19 343 20 351 279 288 338 327 351 60 348 305 326 328 245 294 310 303 244 210 167 131 88 160 205 224 332 342 301 305 319 317 322 328 322 330 309 267 277 281 268 253 242 241 239 233 229 219 208 207 206 207 210 214 215 215 217 220 221 222 221 219 219 220 221 223 224 223 224 224 224 225 225 226 227 227 226 226 227 230 233 234 234 235 235
64 60 3 10 354 283 296 325 352 32 37 277 261 229 226 235 143 144 265 257 238 207 192 233 236 233 218 185 201 222 235 249 265 278 284 275 278 285 269 263 260 257 256 251 245 243 244 248 246 237 230 225 220 219 219 220 221 225 226 225 223 221 219 220 220 220 223 224 223 225 225 224 224 226 227 227 226 226 226 227 232 234 235 235 235 235
38 58 70 131 137 277 307 353 32 21 253 241 244 245 257 260 207 229 271 264 233 221 243 260 253 244 236 226 218 219 235 243 244 256 258 230 211 221 235 247 249 243 251 265 265 266 270 272 270 263 255 249 243 237 230 227 225 225 224 223 222 221 220 221 221 221 223 225 225 225 224 224 224 225 225 226 225 225 227 229 232 234 235 235 236 237
125 118 136 129 164 302 340 22 36 280 266 275 344 279 256 331 338 318 333 308 248 203 200 238 264 256 247 255 249 232 243 263 273 248 235 211 204 208 212 243 277 251 242 257 254 252 266 266 256 251 248 244 241 238 235 232 229 225 224 224 222 222 222 222 223 224 224 224 225 224 223 223 223 223 224 224 224 226 228 230 232 234 235 235 236 237
120 120 79 352 0 67 15 284 286 324 327 326 347 200 200 339 321 116 51 329 290 198 176 195 305 316 328 297 278 267 255 351 32 9 245 216 214 218 224 252 276 266 263 270 266 254 243 218 210 210 212 215 219 223 226 227 226 226 225 225 224 224 224 224 226 227 226 226 225 225 224 224 223 223 223 224 225 227 229 230 232 234 234 234 234 235
88 109 183 263 335 88 73 309 325 11 333 275 275 283 295 315 253 126 86 343 295 219 187 169 137 315 329 352 336 331 12 58 40 336 291 282 255 245 270 275 273 273 276 280 279 269 239 210 204 199 201 204 204 206 210 214 218 221 221 222 223 223 223 225 228 228 228 228 228 228 227 226 225 224 224 224 226 228 230 231 233 234 234 234 235 237
61 51 101 94 25 64 83 345 294 281 259 250 260 292 328 65 173 93 61 337 281 221 190 174 183 245 260 304 359 15 55 53 0 279 271 300 310 295 276 279 283 288 293 298 297 292 272 237 225 219 221 221 216 211 208 209 213 215 218 220 221 221 223 227 229 230 230 231 231 230 229 228 227 226 226 227 229 231 232 234 234 235 235 236 239 241
41 15 26 62 296 134 124 228 251 234 244 245 254 283 315 160 123 73 48 296 268 230 188 173 185 214 200 171 76 67 86 85 273 262 276 314 318 298 270 275 293 303 306 307 300 287 272 260 253 246 243 242 235 227 223 219 215 215 219 221 220 223 228 232 233 233 234 235 233 232 231 230 229 229 229 231 233 234 235 236 236 236 237 240 242 243
14 8 36 148 190 157 162 246 282 257 246 254 257 264 278 354 65 74 156 242 263 260 203 176 192 204 169 160 162 155 196 206 212 261 298 320 318 302 288 286 291 295 299 299 289 276 265 258 259 257 254 251 240 232 230 226 221 221 222 222 224 230 236 239 240 240 238 237 236 235 234 233 233 233 234 235 237 237 238 238 238 239 240 242 243 243
110 29 37 119 123 134 167 219 298 286 245 210 215 233 233 83 87 195 222 226 238 247 223 198 214 209 167 171 194 207 251 276 277 286 290 282 273 279 289 295 292 290 292 287 271 262 258 255 255 256 254 246 236 233 231 228 228 227 225 227 234 241 245 245 246 245 242 241 240 239 238 237 236 236 237 237 238 238 239 240 240 241 242 242 243 244
172 188 269 214 177 125 50 37 358 296 241 181 157 223 287 163 202 222 250 256 206 212 215 217 232 216 182 202 229 237 272 300 306 299 292 283 274 277 289 299 301 298 294 285 269 260 256 256 258 258 258 249 238 236 235 234 236 236 235 240 247 253 254 252 251 249 245 244 242 241 241 240 239 239 238 238 238 237 239 240 240 240 241 241 241 242
198 186 233 248 193 124 73 246 218 224 222 187 158 205 228 219 191 176 194 266 235 200 192 218 241 219 187 203 237 246 259 275 284 298 304 292 277 277 285 289 289 289 286 277 264 255 250 253 256 256 252 247 243 240 237 238 241 241 244 251 258 260 258 257 255 250 246 243 242 241 241 240 240 240 239 239 238 237 237 239 239 239 240 240 240 240
231 192 173 199 208 179 194 224 229 230 236 222 208 219 229 242 218 169 179 240 257 204 180 198 247 234 197 199 229 242 236 247 255 263 275 277 276 279 285 287 286 283 280 272 256 246 244 250 255 253 246 241 241 243 242 241 240 241 247 257 262 258 257 257 253 250 247 246 245 244 242 241 240 239 239 239 238 237 236 237 237 237 237 238 237 238
261 186 144 175 258 262 257 255 250 260 263 246 232 234 242 252 239 172 181 229 246 218 192 193 229 238 201 180 209 249 252 259 279 286 280 286 296 297 298 303 306 303 295 291 278 256 254 258 261 262 259 249 244 245 247 246 243 246 256 267 269 263 259 252 246 247 246 246 247 247 245 244 242 241 241 240 239 239 239 237 236 236 236 236 235 236
272 165 165 213 278 306 291 269 237 238 254 252 251 267 264 250 232 195 194 223 225 211 211 214 218 221 191 172 199 244 257 249 262 284 288 285 288 293 295 300 309 316 311 300 295 272 263 264 266 268 270 264 252 248 249 249 251 257 265 270 269 268 264 254 248 246 245 244 245 244 244 244 244 244 243 241 240 240 239 238 237 237 236 234 233 233
182 151 190 208 180 193 250 262 260 261 265 260 251 259 260 244 230 217 220 239 248 241 237 228 206 190 184 191 203 226 250 242 228 250 273 275 267 273 279 283 297 316 318 295 285 270 264 269 273 274 277 280 277 269 263 261 263 267 267 265 264 264 262 258 255 253 252 251 248 246 245 245 245 245 245 244 243 241 240 239 237 236 237 237 236 234
123 154 196 192 201 281 283 276 277 288 289 276 251 238 240 235 228 224 225 236 259 266 260 249 226 207 207 214 199 197 236 251 227 222 251 268 265 269 276 284 294 302 300 290 286 276 273 279 282 283 288 296 300 297 289 285 285 283 276 270 265 260 258 259 258 257 258 256 253 251 250 248 248 248 247 247 247 246 246 245 243 243 245 246 245 244
146 183 188 148 187 275 268 250 218 185 275 266 248 235 236 223 209 218 227 224 231 237 235 239 241 228 223 226 212 191 229 260 247 220 237 258 266 272 280 291 299 302 306 309 298 287 285 290 292 293 300 308 313 308 300 296 294 291 288 282 273 266 263 261 259 257 258 257 255 255 253 252 251 250 250 250 251 252 253 252 251 250 252 254 254 254
186 188 178 171 197 232 237 227 186 149 218 252 254 259 265 216 178 197 215 222 228 224 206 206 230 238 236 231 216 202 217 251 252 234 242 264 271 276 282 288 291 295 300 300 294 292 292 294 297 298 302 309 311 304 297 293 290 289 290 286 279 275 271 266 261 260 259 258 258 258 256 255 254 252 251 252 253 254 256 258 258 256 255 257 258 258